Time,TemperatureF,DewpointF,PressureIn,WindDirection,WindDirectionDegrees,WindSpeedMPH,WindSpeedGustMPH,Humidity,HourlyPrecipIn,Conditions,Clouds,dailyrainin,SoftwareType,DateUTC
2013-06-29 00:00:00,83.7,69.3,29.55,NW,315,0.0,-999.0,62,-99.99,,,0.00,Acu-Link.com,2013-06-29 05:00:00,
2013-06-29 00:15:00,81.7,68.8,29.56,NNE,22,0.0,-999.0,65,-99.99,,,0.00,Acu-Link.com,2013-06-29 05:15:00,
2013-06-29 01:00:00,78.6,68.0,29.56,North,0,0.0,-999.0,70,-99.99,,,0.00,Acu-Link.com,2013-06-29 06:00:00,
2013-06-29 01:16:00,78.3,68.5,29.55,North,0,0.0,-999.0,72,-99.99,,,0.00,Acu-Link.com,2013-06-29 06:16:00,
2013-06-29 02:01:00,77.2,68.3,29.55,NNW,337,0.0,-999.0,74,-99.99,,,0.00,Acu-Link.com,2013-06-29 07:01:00,
2013-06-29 02:16:00,77.4,69.6,29.55,NNE,22,0.0,-999.0,77,-99.99,,,0.00,Acu-Link.com,2013-06-29 07:16:00,
2013-06-29 02:31:00,76.6,68.8,29.55,NNE,22,0.0,-999.0,77,-99.99,,,0.00,Acu-Link.com,2013-06-29 07:31:00,
2013-06-29 02:46:00,76.1,68.7,29.55,North,0,0.0,-999.0,78,-99.99,,,0.00,Acu-Link.com,2013-06-29 07:46:00,
2013-06-29 04:32:00,75.4,69.2,29.56,NNE,22,0.0,-999.0,81,-99.99,,,0.00,Acu-Link.com,2013-06-29 09:32:00,
2013-06-29 04:47:00,75.6,69.7,29.56,NNW,337,0.0,-999.0,82,-99.99,,,0.00,Acu-Link.com,2013-06-29 09:47:00,
2013-06-29 06:01:00,75.4,69.9,29.56,NNE,22,0.0,-999.0,83,-99.99,,,0.00,Acu-Link.com,2013-06-29 11:01:00,
2013-06-29 06:16:00,75.0,68.8,29.58,NNW,337,0.0,-999.0,81,-99.99,,,0.00,Acu-Link.com,2013-06-29 11:16:00,
2013-06-29 06:31:00,75.0,68.8,29.58,NNE,22,0.0,-999.0,81,-99.99,,,0.00,Acu-Link.com,2013-06-29 11:31:00,
2013-06-29 06:47:00,75.4,68.4,29.59,NNE,22,3.7,-999.0,79,-99.99,,,0.00,Acu-Link.com,2013-06-29 11:47:00,
2013-06-29 07:02:00,76.3,68.9,29.58,NNE,22,0.0,-999.0,78,-99.99,,,0.00,Acu-Link.com,2013-06-29 12:02:00,
2013-06-29 07:17:00,76.6,69.2,29.59,North,0,1.1,-999.0,78,-99.99,,,0.00,Acu-Link.com,2013-06-29 12:17:00,
2013-06-29 07:32:00,77.2,69.4,29.58,NNE,22,0.0,-999.0,77,-99.99,,,0.00,Acu-Link.com,2013-06-29 12:32:00,
2013-06-29 07:48:00,77.9,69.7,29.58,NE,45,0.0,-999.0,76,-99.99,,,0.00,Acu-Link.com,2013-06-29 12:48:00,
2013-06-29 08:03:00,79.0,70.4,29.58,West,270,0.0,-999.0,75,-99.99,,,0.00,Acu-Link.com,2013-06-29 13:03:00,
2013-06-29 08:18:00,80.8,70.1,29.59,NNE,22,0.0,-999.0,70,-99.99,,,0.00,Acu-Link.com,2013-06-29 13:18:00,
2013-06-29 08:34:00,82.2,70.1,29.58,NNE,22,3.2,-999.0,67,-99.99,,,0.00,Acu-Link.com,2013-06-29 13:34:00,
2013-06-29 08:49:00,85.6,70.6,29.59,NNE,22,5.3,-999.0,61,-99.99,,,0.00,Acu-Link.com,2013-06-29 13:49:00,
2013-06-29 10:17:00,90.7,70.0,29.60,NW,315,2.7,-999.0,51,-99.99,,,0.00,Acu-Link.com,2013-06-29 15:17:00,
2013-06-29 10:32:00,91.9,67.5,29.60,North,0,2.2,-999.0,45,-99.99,,,0.00,Acu-Link.com,2013-06-29 15:32:00,
2013-06-29 10:47:00,92.7,66.2,29.59,NNE,22,4.7,-999.0,42,-99.99,,,0.00,Acu-Link.com,2013-06-29 15:47:00,
2013-06-29 11:03:00,94.5,66.4,29.59,NNE,22,1.1,-999.0,40,-99.99,,,0.00,Acu-Link.com,2013-06-29 16:03:00,
2013-06-29 11:18:00,93.4,65.4,29.59,WSW,247,3.2,-999.0,40,-99.99,,,0.00,Acu-Link.com,2013-06-29 16:18:00,
2013-06-29 12:02:00,93.6,64.9,29.59,NNW,337,5.8,-999.0,39,-99.99,,,0.00,Acu-Link.com,2013-06-29 17:02:00,
2013-06-29 12:18:00,97.3,64.2,29.59,NE,45,2.2,-999.0,34,-99.99,,,0.00,Acu-Link.com,2013-06-29 17:18:00,
2013-06-29 13:02:00,98.1,64.0,29.58,North,0,3.2,-999.0,33,-99.99,,,0.00,Acu-Link.com,2013-06-29 18:02:00,
2013-06-29 13:18:00,96.1,62.3,29.58,NNW,337,9.4,-999.0,33,-99.99,,,0.00,Acu-Link.com,2013-06-29 18:18:00,
2013-06-29 14:03:00,94.6,63.5,29.57,NE,45,2.2,-999.0,36,-99.99,,,0.00,Acu-Link.com,2013-06-29 19:03:00,
2013-06-29 14:18:00,99.1,63.1,29.56,North,0,3.2,-999.0,31,-99.99,,,0.00,Acu-Link.com,2013-06-29 19:18:00,
2013-06-29 15:03:00,99.9,61.9,29.55,NNE,22,5.8,-999.0,29,-99.99,,,0.00,Acu-Link.com,2013-06-29 20:03:00,
2013-06-29 15:18:00,99.7,64.5,29.53,North,0,1.7,-999.0,32,-99.99,,,0.00,Acu-Link.com,2013-06-29 20:18:00,
2013-06-29 15:33:00,101.5,60.2,29.52,NNE,22,3.7,-999.0,26,-99.99,,,0.00,Acu-Link.com,2013-06-29 20:33:00,
2013-06-29 15:48:00,102.0,61.6,29.51,NE,45,6.3,-999.0,27,-99.99,,,0.00,Acu-Link.com,2013-06-29 20:48:00,
2013-06-29 16:04:00,100.8,60.6,29.51,North,0,1.7,-999.0,27,-99.99,,,0.00,Acu-Link.com,2013-06-29 21:04:00,
2013-06-29 16:19:00,101.3,62.1,29.52,NNE,22,3.2,-999.0,28,-99.99,,,0.00,Acu-Link.com,2013-06-29 21:19:00,
2013-06-29 16:34:00,101.3,61.1,29.51,NNW,337,7.8,-999.0,27,-99.99,,,0.00,Acu-Link.com,2013-06-29 21:34:00,
2013-06-29 16:49:00,99.9,59.9,29.52,ENE,67,7.3,-999.0,27,-99.99,,,0.00,Acu-Link.com,2013-06-29 21:49:00,
2013-06-29 17:04:00,100.4,61.3,29.51,East,90,5.8,-999.0,28,-99.99,,,0.00,Acu-Link.com,2013-06-29 22:04:00,
2013-06-29 17:19:00,100.8,60.6,29.50,WNW,292,2.2,-999.0,27,-99.99,,,0.00,Acu-Link.com,2013-06-29 22:19:00,
2013-06-29 17:35:00,100.6,61.5,29.51,NNW,337,4.2,-999.0,28,-99.99,,,0.00,Acu-Link.com,2013-06-29 22:35:00,
2013-06-29 17:50:00,100.2,61.1,29.50,NNE,22,5.8,-999.0,28,-99.99,,,0.00,Acu-Link.com,2013-06-29 22:50:00,
2013-06-29 19:03:00,97.7,61.0,29.47,ESE,112,5.8,-999.0,30,-99.99,,,0.00,Acu-Link.com,2013-06-30 00:03:00,
2013-06-29 19:19:00,97.0,61.3,29.48,North,0,3.2,-999.0,31,-99.99,,,0.00,Acu-Link.com,2013-06-30 00:19:00,
2013-06-29 19:34:00,95.4,60.8,29.48,NNE,22,2.2,-999.0,32,-99.99,,,0.00,Acu-Link.com,2013-06-30 00:34:00,
2013-06-29 19:49:00,95.0,61.3,29.49,NE,45,1.7,-999.0,33,-99.99,,,0.00,Acu-Link.com,2013-06-30 00:49:00,
2013-06-29 20:05:00,93.7,62.7,29.49,NE,45,2.7,-999.0,36,-99.99,,,0.00,Acu-Link.com,2013-06-30 01:05:00,
2013-06-29 20:20:00,92.1,62.0,29.49,NNW,337,4.2,-999.0,37,-99.99,,,0.00,Acu-Link.com,2013-06-30 01:20:00,
2013-06-29 20:35:00,90.7,61.6,29.50,North,0,1.7,-999.0,38,-99.99,,,0.00,Acu-Link.com,2013-06-30 01:35:00,
2013-06-29 20:50:00,89.6,62.0,29.50,NE,45,3.7,-999.0,40,-99.99,,,0.00,Acu-Link.com,2013-06-30 01:50:00,
2013-06-29 22:19:00,85.5,64.1,29.53,ESE,112,0.0,-999.0,49,-99.99,,,0.00,Acu-Link.com,2013-06-30 03:19:00,
2013-06-29 22:34:00,84.7,64.0,29.53,NW,315,0.0,-999.0,50,-99.99,,,0.00,Acu-Link.com,2013-06-30 03:34:00,
2013-06-29 22:50:00,84.0,63.9,29.54,NNE,22,0.0,-999.0,51,-99.99,,,0.00,Acu-Link.com,2013-06-30 03:50:00,
2013-06-29 23:05:00,82.8,63.9,29.54,NNE,22,0.0,-999.0,53,-99.99,,,0.00,Acu-Link.com,2013-06-30 04:05:00,
2013-06-29 23:20:00,81.5,63.7,29.54,NE,45,0.0,-999.0,55,-99.99,,,0.00,Acu-Link.com,2013-06-30 04:20:00,
2013-06-29 23:36:00,81.1,64.9,29.54,WNW,292,0.0,-999.0,58,-99.99,,,0.00,Acu-Link.com,2013-06-30 04:36:00,
2013-06-29 23:51:00,80.6,63.9,29.54,NNW,337,0.0,-999.0,57,-99.99,,,0.00,Acu-Link.com,2013-06-30 04:51:00,